[[{"header":{"parameterUnit":"m.s-1","parameterCategory":1,"la1":30.2991,"la2":30.254,"lo1":-89.0895,"lo2":-89.0444,"dy":0.0017,"dx":0.0017,"nx":28,"ny":28,"refTime":"2023-09-23T03:00:00:Z","depth":0,"parameterNumber":2,"parameterNumberName":"U-component_of_WINDS"},"data":[0,0,0,0,0,0,0,0,0,0,0,0,0,0,0,0,0,0,0,0,0,0,0,0,0,0,0,0,0,0,0,0,0,0,0,0,0,0,0,0,0,0,0,0,0,0,0,0,0,0,0,0,0,0,0,0,0,0,0.9766,0.9766,0,0.9782,0.9782,0.9782,0.9796,0.9796,0.9796,0.9796,0.9812,0.9813,0.9813,0,0,0,0,0,0,0,0,0,0,0,0,0,0.9748,0.9749,0.9766,0.9766,0.9766,0.9782,0.9782,0.9782,0.9796,0.9796,0.9796,0.9796,0.9812,0.9812,0.9813,0,0,0,0,0,0,0,0,0,0,0,0,0,0.9759,0.9749,0.9766,0.9775,0.9776,0.9782,0.9782,0.9782,0.9796,0.9796,0.9796,0.9796,0.9812,0.9812,0.9813,0.9811,0,0,0.9814,0.9814,0,0,0,0,0,0,0,0,0.9759,0.976,0.9774,0.9774,0.9776,0.9787,0.9781,0.9792,0.9796,0.9788,0.9796,0.9796,0.9804,0.9805,0.9807,0.9811,0.9812,0.9814,0.9814,0.9815,0.9815,0,0,0,0,0,0,0,0.9758,0.9759,0.9772,0.9774,0.9775,0.9778,0.978,0.9783,0.9794,0.9789,0.979,0.9792,0.9804,0.9807,0.9808,0.9812,0.9814,0.9815,0.9815,0.9815,0.9816,0.9816,0,0,0,0,0,0,0.9756,0.9759,0.9772,0.9773,0.9767,0.9779,0.9781,0.9783,0.9794,0.9796,0.9791,0.9792,0.9806,0.9807,0.9808,0.9807,0.9815,0.9815,0.9815,0.9816,0.9816,0.9816,0,0,0,0,0,0,0.9755,0.9757,0.9771,0.9766,0.9768,0.9779,0.9781,0.9783,0.9786,0.9796,0.9798,0.9792,0.9806,0.9808,0.981,0.9808,0.9815,0.9816,0.9817,0.9816,0.9816,0.9804,0,0,0,0,0,0,0.9755,0.9756,0.9756,0.9766,0.9768,0.9772,0.9781,0.9783,0.9786,0.9788,0.9797,0.9799,0.9806,0.9809,0.981,0.9808,0.9816,0.9817,0.9816,0.9816,0.9804,0.9803,0.9802,0,0,0,0,0,0.9754,0.9751,0.9755,0.9757,0.9767,0.9772,0.9774,0.9782,0.9786,0.9786,0.9792,0.9799,0.9808,0.981,0.9811,0.9809,0.9817,0.9817,0.9816,0.9805,0.9803,0.9802,0,0,0,0,0,0,0.9741,0.9753,0.9758,0.9758,0.9764,0.9775,0.9774,0.978,0.9785,0.9786,0.9796,0.9798,0.98,0.9804,0.9806,0.9808,0.9813,0.9813,0.9804,0.9803,0.9802,0.98,0.9816,0,0,0,0,0,0.9738,0.9741,0.9751,0.9751,0.9754,0.9763,0.9766,0.9772,0.9778,0.9781,0.9788,0.9794,0.9798,0.9801,0.9805,0.9805,0.9808,0.9804,0.9803,0.9802,0.9802,0.9803,0.9801,0.9814,0.9814,0.9814,0,0,0.9732,0.9739,0.974,0.9748,0.9754,0.9757,0.9765,0.9768,0.977,0.9781,0.9784,0.9789,0.9797,0.9798,0.9799,0.9802,0.9799,0.9801,0.98,0.9801,0.9802,0.9801,0.98,0.9814,0.9814,0.9814,0,0,0.9723,0.9728,0.9729,0.9734,0.9742,0.9748,0.9748,0.9758,0.9762,0.9765,0.9773,0.9776,0.9783,0.9789,0.9792,0.9785,0.9792,0.9786,0.978,0.9781,0.978,0.9779,0.9777,0.9776,0.9786,0.9786,0.9786,0,0.9714,0.9719,0.9728,0.973,0.9734,0.9744,0.9745,0.9749,0.9758,0.9761,0.9764,0.9773,0.9779,0.9782,0.978,0.9783,0.9783,0.9786,0.9779,0.9778,0.9778,0.9776,0.9775,0.9785,0.9786,0.9786,0.9786,0,0.9709,0.9712,0.9711,0.972,0.9723,0.9725,0.9734,0.9737,0.9742,0.9748,0.9752,0.9759,0.9765,0.9766,0.9772,0.977,0.9772,0.9777,0.9783,0.9776,0.9774,0.9773,0.9785,0.9785,0.9785,0.9785,0,0,0.9692,0.9705,0.9705,0.9709,0.9719,0.9721,0.9723,0.973,0.9732,0.9738,0.974,0.9746,0.975,0.9754,0.9761,0.9761,0.9756,0.9766,0.9767,0.9765,0.9755,0.9751,0.9751,0.976,0.976,0.976,0.9755,0,0.9684,0.9689,0.9697,0.9699,0.9702,0.9712,0.9714,0.972,0.9726,0.9729,0.9736,0.974,0.9746,0.9748,0.9749,0.9756,0.9754,0.9757,0.9763,0.9763,0.9761,0.975,0.9746,0.974,0.9754,0.9754,0.9754,0,0.9677,0.9682,0.9684,0.9694,0.9695,0.9697,0.9704,0.9707,0.9714,0.9719,0.9723,0.973,0.9733,0.9738,0.9743,0.9744,0.9747,0.9751,0.9751,0.9752,0.9758,0.9751,0.9739,0.9738,0.9753,0.9753,0.9753,0,0.9665,0.9672,0.9675,0.9678,0.9689,0.969,0.9695,0.9702,0.9706,0.9711,0.9714,0.972,0.9723,0.9728,0.9736,0.9739,0.974,0.9746,0.9744,0.9744,0.9744,0.9744,0.9732,0.9745,0.9745,0.9745,0.9745,0,0.9656,0.9657,0.9669,0.9671,0.9672,0.9682,0.9683,0.9689,0.9695,0.9698,0.9707,0.971,0.9721,0.9725,0.9731,0.9734,0.9736,0.9739,0.9741,0.9739,0.9738,0.9741,0.9742,0.9745,0.9745,0.9745,0.9745,0,0.9643,0.9651,0.9654,0.9665,0.9668,0.9668,0.9677,0.9679,0.9686,0.9689,0.9691,0.9701,0.9706,0.9715,0.9722,0.9727,0.9729,0.9732,0.9726,0.9727,0.9725,0.9725,0.9715,0.9714,0.9727,0.9727,0.9727,0,0.9637,0.9638,0.9648,0.9651,0.9655,0.9659,0.9663,0.9672,0.9676,0.9684,0.9685,0.9691,0.9696,0.9704,0.9712,0.9718,0.9721,0.9717,0.9722,0.972,0.9722,0.9722,0.9722,0.9716,0.9716,0.9716,0.9716,0,0.9626,0.963,0.9634,0.9641,0.9644,0.965,0.9656,0.9657,0.9668,0.9671,0.9677,0.9681,0.9688,0.9694,0.9701,0.9707,0.9713,0.9714,0.9714,0.9712,0.9709,0.9711,0.9723,0.9715,0.9715,0.9715,0.9715,0.9715,0.9616,0.9618,0.9625,0.963,0.9636,0.9641,0.9643,0.965,0.9655,0.9662,0.9667,0.9672,0.968,0.969,0.9695,0.9699,0.9702,0.9702,0.9702,0.9702,0.9701,0.9708,0.9701,0.9701,0.9701,0.9701,0.9701,0,0.9606,0.9611,0.9616,0.9624,0.9628,0.9633,0.964,0.9643,0.9647,0.9654,0.9659,0.9665,0.9671,0.9679,0.9686,0.9687,0.9691,0.9689,0.9689,0.969,0.9698,0.9697,0.9686,0.9686,0.9686,0.9686,0.9686,0.9686,0.9601,0.9604,0.9609,0.9615,0.962,0.9625,0.9628,0.9633,0.9639,0.9645,0.965,0.9656,0.9663,0.967,0.9676,0.9678,0.968,0.9678,0.9681,0.9688,0.969,0.9691,0.969,0.9678,0.9678,0.9673,0.9673,0.9673]},{"header":{"parameterUnit":"m.s-1","parameterCategory":1,"la1":30.2991,"la2":30.254,"lo1":-89.0895,"lo2":-89.0444,"dy":0.0017,"dx":0.0017,"nx":28,"ny":28,"refTime":"2023-09-23T03:00:00:Z","depth":0,"parameterNumber":3,"parameterNumberName":"V-component_of_WINDS"},"data":[0,0,0,0,0,0,0,0,0,0,0,0,0,0,0,0,0,0,0,0,0,0,0,0,0,0,0,0,0,0,0,0,0,0,0,0,0,0,0,0,0,0,0,0,0,0,0,0,0,0,0,0,0,0,0,0,0,0,-0.0521,-0.0522,0,-0.0572,-0.0572,-0.0573,-0.0585,-0.0585,-0.0585,-0.0585,-0.0635,-0.0637,-0.0639,0,0,0,0,0,0,0,0,0,0,0,0,0,-0.0437,-0.0438,-0.0521,-0.0522,-0.0523,-0.0571,-0.0572,-0.0573,-0.0586,-0.0585,-0.0585,-0.0584,-0.0635,-0.0637,-0.0639,0,0,0,0,0,0,0,0,0,0,0,0,0,-0.0479,-0.0439,-0.0521,-0.0535,-0.0537,-0.0571,-0.0572,-0.0573,-0.0586,-0.0585,-0.0585,-0.0584,-0.0634,-0.0637,-0.0639,-0.0664,0,0,-0.0647,-0.0648,0,0,0,0,0,0,0,0,-0.0477,-0.0482,-0.0532,-0.0534,-0.0536,-0.0572,-0.0561,-0.0603,-0.0586,-0.0567,-0.0585,-0.0584,-0.0615,-0.0619,-0.0629,-0.0666,-0.0668,-0.0647,-0.0648,-0.0649,-0.065,0,0,0,0,0,0,0,-0.0474,-0.048,-0.0541,-0.0533,-0.0535,-0.0539,-0.0544,-0.0569,-0.0593,-0.0569,-0.057,-0.0575,-0.0616,-0.0627,-0.063,-0.0669,-0.0647,-0.0649,-0.065,-0.0651,-0.073,-0.0731,0,0,0,0,0,0,-0.0468,-0.0477,-0.054,-0.0543,-0.0505,-0.054,-0.0547,-0.0561,-0.0593,-0.0597,-0.0576,-0.0576,-0.0623,-0.0627,-0.0632,-0.0664,-0.0649,-0.0652,-0.0653,-0.0729,-0.073,-0.0731,0,0,0,0,0,0,-0.0467,-0.0474,-0.0538,-0.051,-0.0519,-0.0542,-0.0558,-0.0562,-0.0573,-0.0598,-0.0602,-0.0583,-0.0622,-0.0629,-0.0656,-0.0666,-0.0653,-0.0655,-0.0729,-0.073,-0.073,-0.0727,0,0,0,0,0,0,-0.0464,-0.0473,-0.0482,-0.0511,-0.052,-0.0561,-0.0559,-0.0563,-0.0577,-0.0578,-0.0606,-0.061,-0.0623,-0.0652,-0.0659,-0.0669,-0.0657,-0.0728,-0.0729,-0.073,-0.0727,-0.0728,-0.0729,0,0,0,0,0,-0.0461,-0.0479,-0.0483,-0.049,-0.0533,-0.0561,-0.0567,-0.0581,-0.0578,-0.0588,-0.0604,-0.0609,-0.0664,-0.0655,-0.0662,-0.0674,-0.0727,-0.0729,-0.073,-0.0726,-0.0728,-0.0729,0,0,0,0,0,0,-0.0451,-0.0483,-0.0488,-0.0515,-0.0536,-0.0563,-0.0576,-0.0582,-0.0603,-0.0603,-0.062,-0.0626,-0.0652,-0.0666,-0.0655,-0.07,-0.0696,-0.0698,-0.069,-0.0692,-0.0693,-0.069,-0.0659,0,0,0,0,0,-0.0452,-0.0473,-0.05,-0.0522,-0.0532,-0.0552,-0.0565,-0.0575,-0.0596,-0.0604,-0.0622,-0.0643,-0.0665,-0.0679,-0.0701,-0.0729,-0.0735,-0.074,-0.0741,-0.0742,-0.0745,-0.0762,-0.0764,-0.0735,-0.0735,-0.0735,0,0,-0.0455,-0.0475,-0.0487,-0.052,-0.0537,-0.0558,-0.0559,-0.0581,-0.0597,-0.0608,-0.0635,-0.0649,-0.0673,-0.0701,-0.0714,-0.0713,-0.0754,-0.0744,-0.0745,-0.0747,-0.0763,-0.0766,-0.0769,-0.0736,-0.0736,-0.0736,0,0,-0.047,-0.0487,-0.0508,-0.0525,-0.0551,-0.0564,-0.0569,-0.0596,-0.0606,-0.0634,-0.0643,-0.0662,-0.0699,-0.0716,-0.073,-0.0753,-0.0759,-0.076,-0.0766,-0.0783,-0.0785,-0.0787,-0.0796,-0.0799,-0.0762,-0.0762,-0.0762,0,-0.047,-0.0502,-0.0518,-0.054,-0.0555,-0.0566,-0.0587,-0.0603,-0.0634,-0.0644,-0.0642,-0.069,-0.0707,-0.074,-0.0746,-0.0756,-0.0763,-0.0757,-0.0784,-0.0786,-0.0788,-0.0797,-0.08,-0.0762,-0.0762,-0.0762,-0.0762,0,-0.0501,-0.0524,-0.0538,-0.0568,-0.0585,-0.0606,-0.0625,-0.064,-0.0648,-0.0662,-0.0691,-0.0712,-0.0738,-0.0746,-0.0754,-0.0781,-0.0779,-0.078,-0.0776,-0.0791,-0.0799,-0.0803,-0.0762,-0.0762,-0.0762,-0.0762,0,0,-0.0512,-0.0551,-0.0556,-0.0571,-0.06,-0.0618,-0.064,-0.0667,-0.068,-0.0701,-0.0721,-0.0752,-0.0754,-0.0769,-0.0779,-0.0793,-0.0812,-0.0793,-0.0794,-0.0796,-0.0844,-0.0843,-0.0847,-0.0816,-0.0816,-0.0817,-0.0842,0,-0.0532,-0.0573,-0.0588,-0.0621,-0.0643,-0.0654,-0.0674,-0.0694,-0.0708,-0.0728,-0.0743,-0.0766,-0.0766,-0.0775,-0.079,-0.0807,-0.0822,-0.0805,-0.0835,-0.0836,-0.0829,-0.0851,-0.0851,-0.0873,-0.0845,-0.0846,-0.0846,0,-0.056,-0.0583,-0.0619,-0.0647,-0.0656,-0.0674,-0.07,-0.0719,-0.0743,-0.0752,-0.077,-0.0779,-0.0803,-0.0798,-0.0832,-0.082,-0.0834,-0.0844,-0.0845,-0.0849,-0.0842,-0.0857,-0.0881,-0.0885,-0.0852,-0.0851,-0.0851,0,-0.0565,-0.0604,-0.0631,-0.0643,-0.0676,-0.0689,-0.0703,-0.0726,-0.0742,-0.0764,-0.0775,-0.0799,-0.0813,-0.0832,-0.0849,-0.0843,-0.0882,-0.0877,-0.0891,-0.089,-0.0899,-0.0898,-0.0926,-0.0906,-0.0906,-0.0906,-0.0906,0,-0.0586,-0.0608,-0.0634,-0.0651,-0.0676,-0.0693,-0.0718,-0.0733,-0.0753,-0.0773,-0.0784,-0.0803,-0.0823,-0.0844,-0.0856,-0.0884,-0.0889,-0.0898,-0.0901,-0.0897,-0.0896,-0.0907,-0.0906,-0.0907,-0.0906,-0.0906,-0.0906,0,-0.0596,-0.0614,-0.0645,-0.0674,-0.0682,-0.0699,-0.0725,-0.0741,-0.0756,-0.0781,-0.0788,-0.0811,-0.0837,-0.0855,-0.0887,-0.0896,-0.0926,-0.0928,-0.0918,-0.092,-0.0932,-0.0931,-0.0968,-0.0975,-0.0949,-0.0949,-0.095,0,-0.0608,-0.0626,-0.0657,-0.0672,-0.0686,-0.0709,-0.0725,-0.0743,-0.0759,-0.0788,-0.0802,-0.0828,-0.0851,-0.0891,-0.0911,-0.0936,-0.094,-0.0951,-0.0944,-0.094,-0.0941,-0.094,-0.0943,-0.0953,-0.0953,-0.0953,-0.0953,0,-0.0629,-0.0637,-0.066,-0.0687,-0.0706,-0.0727,-0.0749,-0.076,-0.0782,-0.0799,-0.0826,-0.0843,-0.0878,-0.0904,-0.0932,-0.0946,-0.0954,-0.0955,-0.096,-0.0956,-0.095,-0.0955,-0.0922,-0.0954,-0.0954,-0.0954,-0.0954,-0.0954,-0.0641,-0.0657,-0.0683,-0.0708,-0.0726,-0.0747,-0.0764,-0.0782,-0.0804,-0.0834,-0.0843,-0.0871,-0.0895,-0.0933,-0.0948,-0.0971,-0.097,-0.0976,-0.0978,-0.0979,-0.098,-0.0946,-0.0976,-0.0976,-0.0976,-0.0976,-0.0976,0,-0.0663,-0.068,-0.0703,-0.0734,-0.0754,-0.0759,-0.0784,-0.08,-0.0825,-0.0847,-0.0869,-0.09,-0.0926,-0.0948,-0.0976,-0.0989,-0.0993,-0.0996,-0.0995,-0.0999,-0.0979,-0.0972,-0.0992,-0.0992,-0.0992,-0.0992,-0.0992,-0.0992,-0.0676,-0.0705,-0.0717,-0.0755,-0.0772,-0.08,-0.0813,-0.0832,-0.085,-0.0885,-0.0907,-0.0921,-0.0944,-0.0973,-0.0997,-0.1003,-0.1013,-0.1015,-0.1021,-0.1002,-0.1,-0.0998,-0.0993,-0.1016,-0.1016,-0.104,-0.104,-0.104]}]]